Location: Amber Place
(27.9751°N, 82.3711°W)
Time: 21:11:15
(UTC+00:00)

N. Korean satellite - Pass Details

Date: 01 October 2021
Orbit: 450 x 495 km, 97.3° (Epoch: 25 October)

Event Time Altitude Azimuth Distance (km) Brightness Sun altitude
Rises 10:11:32 0° 22° (NNE) 2,554 10.6 -16.5°
Reaches altitude 10° 10:13:43 10° 32° (NNE) 1,677 9.8 -16.0°
Maximum altitude 10:17:03 35° 99° (E) 816 8.4 -15.3°
Drops below altitude 10° 10:20:23 10° 166° (SSE) 1,682 9.4 -14.5°
Sets 10:22:34 0° 175° (S) 2,562 10.3 -14.1°
